This is the latest recevied weather packets stored in our database for station/object WK1F-2. If no packets are shown the sender has not sent any weather packets the latest 10 day(s).
| Time | Temp. | Humidity | Pressure | Rain* | Wind** | Luminosity | Snow |
|---|---|---|---|---|---|---|---|
| 1778180706 | 26.67° C | 58% | 1012.1 hPa | 0 mm | - | - | - |
| 1778180406 | 27.22° C | 57% | 1012.4 hPa | 0 mm | - | - | - |
| 1778180106 | 27.22° C | 57% | 1012.6 hPa | 0 mm | - | - | - |
| 1778179806 | 26.67° C | 57% | 1012.6 hPa | 0 mm | - | - | - |
| 1778179506 | 27.22° C | 57% | 1012.9 hPa | 0 mm | - | - | - |
| 1778179206 | 27.22° C | 56% | 1013 hPa | 0 mm | - | - | - |
| 1778178906 | 27.22° C | 56% | 1013.1 hPa | 0 mm | - | - | - |
| 1778178606 | 27.22° C | 56% | 1013.5 hPa | 0 mm | - | - | - |
| 1778178306 | 27.22° C | 56% | 1013.4 hPa | 0 mm | - | - | - |
| 1778178006 | 27.22° C | 55% | 1013.7 hPa | 0 mm | - | - | - |
| 1778177706 | 26.67° C | 57% | 1014 hPa | 0 mm | - | - | - |
| 1778177406 | 26.67° C | 57% | 1014 hPa | 0 mm | - | - | - |
| 1778177106 | 26.67° C | 59% | 1014.1 hPa | 0 mm | - | - | - |
| 1778176806 | 26.67° C | 60% | 1014.1 hPa | 0 mm | - | - | - |
| 1778176506 | 26.67° C | 63% | 1014.2 hPa | 0 mm | - | - | - |
| 1778176206 | 26.11° C | 63% | 1014.2 hPa | 0 mm | - | - | - |
| 1778175906 | 26.11° C | 65% | 1014.3 hPa | 0 mm | - | - | - |
| 1778175606 | 26.11° C | 65% | 1014.4 hPa | 0 mm | - | - | - |
| 1778175306 | 25.56° C | 66% | 1014.5 hPa | 0 mm | - | - | - |
| 1778175006 | 25.56° C | 66% | 1014.6 hPa | 0 mm | - | - | - |
| 1778174706 | 26.11° C | 66% | 1014.5 hPa | 0 mm | - | - | - |
| 1778174406 | 26.11° C | 66% | 1014.5 hPa | 0 mm | - | - | - |
| 1778174106 | 26.11° C | 66% | 1014.5 hPa | 0 mm | - | - | - |
| 1778173806 | 26.11° C | 66% | 1014.5 hPa | 0 mm | - | - | - |
| 1778173506 | 26.11° C | 65% | 1014.5 hPa | 0 mm | - | - | - |
* Rain latest hour (hover to see other rain measurements)
** Current wind speed in m/s (hover to see current wind gust speed)